User: anonymous   Login
Location: Unspecified
(0.0000°N, 0.0000°E)
Time: 21:51:24
(UTC+00:00)
Language:

STARLINK-35135 - Orbit

View from above orbital plane
View from above orbital plane
View from above satellite
View from above satellite

Ground track
Ground track

The orbit is defined by the following mean orbital elements,

1 65629U          26145.45746918 +.00000000 +00000-0 +86592-3 0 00006
2 65629  53.1607 309.8610 0000806  93.0228 267.0867 15.34404447    09
Epoch (UTC): 25 May 2026 10:58:45
Eccentricity: 0.0000806
inclination: 53.1607°
perigee height: 462 km
apogee height: 463 km
right ascension of ascending node: 309.8610°
argument of perigee: 93.0228°
revolutions per day: 15.34404447
mean anomaly at epoch: 267.0867°

The dashed part of the orbit path shows where the satellite is in the earth's shadow,  

DLR